Regional Weather Roundup
Issued by NWS Upton, NY

Current Version | Previous Version | Graphics & Text | Print | Product List | Glossary Off
Versions: 1 2 3 4 5 6 7 8 9 10 11 12 13 14 15 16 17 18 19 20 21 22 23 24 25 26 27

000
ASUS41 KOKX 271508
RWROKX

REGIONAL WEATHER ROUNDUP
NATIONAL WEATHER SERVICE NEW YORK NY
1000 AM EST MON FEB 27 2017

NOTE: "FAIR" INDICATES FEW OR NO CLOUDS BELOW 12,000 FEET WITH NO
SIGNIFICANT WEATHER AND/OR OBSTRUCTIONS TO VISIBILITY.

NYZ071-072-176-178-NJZ106-104-271600-
NEW YORK CITY METRO AREA

CITY           SKY/WX    TMP DP  RH WIND       PRES   REMARKS
Central Park   MOSUNNY   43  22  43 VRB6      30.45R
Wall St Helipt NOT AVBL
LaGuardia APRT PTSUNNY   46  23  40 SW10      30.43R
Kennedy INTL   PTSUNNY   43  28  55 SW15      30.45R
Breezy Point     N/A     39 N/A N/A W9          N/A  WCI  33
Newark/Liberty PTSUNNY   45  24  43 SW14      30.43R
Teterboro      CLOUDY    45  23  42 SW12      30.42R
$$

NYZ177-179-078>081-271600-
LONG ISLAND NEW YORK

CITY           SKY/WX    TMP DP  RH WIND       PRES   REMARKS
Jones Beach      N/A     41 N/A N/A W12         N/A
Matinecock PT    N/A     41 N/A N/A W18         N/A
Farmingdale    MOSUNNY   44  24  45 SW15      30.43S
MacArthur/ISP  PTSUNNY   45  25  45 SW16G25   30.42R
Shirley        SUNNY     44  28  53 SW13G22   30.43R
Westhampton    SUNNY     45  25  45 SW17G25   30.43S
Southampton      N/A     43  32  65 SW15      30.40S
Bridgehampton  NOT AVBL
East Hampton     N/A     43  27  51 SW13G20   30.42S
Montauk          N/A     45  27  49 SW10      30.42S
$$

NYZ052-065-067-271600-
HUDSON VALLEY

CITY           SKY/WX    TMP DP  RH WIND       PRES   REMARKS
White Plains   CLOUDY    42  20  41 SW5       30.40R
Newburgh       SUNNY     43  21  42 W14       30.38R
Montgomery     CLOUDY    41  22  46 SW14      30.36R
Poughkeepsie   SUNNY     41  19  41 SW10      30.37R
Albany         PTSUNNY   40  20  44 S10       30.30R WCI  33
$$

NJZ001-105-106-008-010-013-015-019>022-104-271600-
NEW JERSEY

CITY           SKY/WX    TMP DP  RH WIND       PRES   REMARKS
Newark/Liberty PTSUNNY   45  24  43 SW14      30.43R
Teterboro      CLOUDY    45  23  42 SW12      30.42R
Caldwell       CLOUDY    43  23  45 VRB6      30.43R
Somerville     SUNNY     44  26  49 VRB5      30.42R
Linden         NOT AVBL
Sussex         CLOUDY    39  21  48 SW9G21    30.39R WCI  33
Andover          N/A     40  21  46 VRB6      30.41R
Trenton        PTSUNNY   43  28  55 SW9       30.43R
Millville      CLOUDY    48  30  49 VRB7      30.45S
Atlantic City  MOSUNNY   48  30  49 S8        30.45S
Wrightstown    PTSUNNY   48  26  42 SW10      30.42R
Toms River     SUNNY     47  27  45 SW12      30.46R
Belmar         SUNNY     48  26  42 SW9       30.45R
$$

PAZ047>061-062-071-271600-
EASTERN PENNSYLVANIA

CITY           SKY/WX    TMP DP  RH WIND       PRES   REMARKS
Philadelphia   PTSUNNY   47  27  45 SW10      30.45S
Allentown      CLOUDY    39  23  52 CALM      30.42R
Scranton       CLOUDY    39  19  44 W10       30.35R WCI  32
$$

CTZ002-004>006-009-010-012-RIZ004-006-007-MAZ004-011-015-271600-
SOUTHERN NEW ENGLAND
 IN CT

CITY           SKY/WX    TMP DP  RH WIND       PRES   REMARKS
Bradley INTL   PTSUNNY   42  18  37 SW10      30.36R
Hartford       SUNNY     42  19  39 SW12G21   30.38S
Danbury        SUNNY     42  18  37 W12       30.39R
Wtrbury/Oxford PTSUNNY   39  19  45 SW10      30.38R WCI  32
Bridgeport     SUNNY     43  26  51 SW10      30.41S
Meriden        MOSUNNY   44  17  33 SW6       30.39S
New Haven      PTSUNNY   40  25  55 SW8       30.41S WCI  34
Chester          N/A     41  25  52 SW8G15    30.39S
Groton         SUNNY     42  25  50 SW16G24   30.40S
Wilimantic     SUNNY     43  19  38 SW12      30.37S

 IN RI

CITY           SKY/WX    TMP DP  RH WIND       PRES   REMARKS
Providence     PTSUNNY   44  18  35 SW13G20   30.37F
Block Island   SUNNY     44  30  57 SW23G29   30.41S
Westerly       SUNNY     42  22  44 W18G28    30.41R
 IN MA

CITY           SKY/WX    TMP DP  RH WIND       PRES   REMARKS
Boston         MOSUNNY   44  20  38 SW15G23   30.33S
Worcester      SUNNY     38  16  40 SW14      30.29S WCI  30
Westfield      SUNNY     41  20  43 S13       30.32S
Provincetown   SUNNY     42  27  55 SW17      30.36S
Nantucket      SUNNY     45  30  55 SW20      30.41R
$$

ANZ330-335-338-340-345-350-353-355-271600-
COASTAL MARINE OBSERVATIONS


STATION/POSITION TIME  SKY/WX   TEMP    WIND        PRES    VSBY  WAVE
                                AIR SEA DIR/SP/G                  HT/PER
                 (UTC)          (F)     (DEG/KT/KT) (MB)    (MI)  (FT/S)
NY HARB ENTRANCE 1350            40 42  230/ 16/ 19 1029.9          3/10
20 S FIRE ISLAND 1450            43 43  220/ 14/ 16 1030.5          3/ 9
GREAT SOUTH BAY  NOT AVBL
23 SSW MONTAUK P 1350            42 44              1030.3          4/ 9
15 E BARNEGAT LI 1430               44                N/A           3/ 9
HUDSON CANYON    1350               47              1031.6          3/ 9
KINGS POINT      1436            41 40              1029.8
EXECUTION ROCKS  NOT AVBL
CENTRAL LI SOUND 1430            39     250/ 12/ 14   N/A           2/ 4
EASTERN LI SOUND NOT AVBL
ROBBINS REEF     1436            40     240/ 17/ 21 1030.4
$$


>>>>>>>>>>>>>>>>>>>>>>>>>>>> KEY <<<<<<<<<<<<<<<<<<<<<<<<<<<
>                                                          <
>     SKY/WX - Sky Condition/Present Weather               <
>     TMP    - Temperature in Fahrenheit                   <
>     DP     - Dew Point in Fahrenheit                     <
>     RH     - Relative Humidity in Percent                <
>     WIND   - Direction (from) and Speed in MPH           <
>     PRES   - Mean Sea Level Pressure (inches of Hg)      <
>     WCI    - Wind Chill Index                            <
>     VSB    - VISIBILITY IN MILES                         <
>     HX     - HEAT INDEX                                  <
>     TC     - TEMPERATURE IN CELSIUS                      <
>     VRB    - VARIABLE WIND DIRECTION                     <
>                                                          <
>>>>>>>>>>>>>>>>>>>>>>>>>>>> KEY <<<<<<<<<<<<<<<<<<<<<<<<<<<




USA.gov is the U.S. government's official web portal to all federal, state and local government web resources and services.